Weather History for Bentonville, AR

Change the Weather History Date:

Saturday, March 30, 2013

  Actual Average Record
Temperature  
Mean Temperature 60 °F -  
Max Temperature 68 °F 61 °F 82 °F (1967)
Min Temperature 53 °F 39 °F 17 °F (1964)
Degree Days  
Heating Degree Days 4    
Growing Degree Days 10 (Base 50)    
Moisture  
Dew Point 52 °F    
Average Humidity 80    
Maximum Humidity 94    
Minimum Humidity 60    
Precipitation  
Precipitation 0.51 in - - ()
Sea Level Pressure  
Sea Level Pressure 29.98 in    
Wind  
Wind Speed 7 mph (SSE)    
Max Wind Speed 15 mph    
Max Gust Speed 23 mph    
Visibility 10 miles    
Events Thunderstorm    
Averages and records for this station are not official NWS values.
T = Trace of Precipitation, MM = Missing Value Source: NWS Daily Summary

Daily Weather History Graph

Daily Weather History Graph

Search for Another Location

Airport:

Trip Planner

Search our weather history database for the weather conditions in past years. The results will help you decide how hot, cold, wet, or windy it might be!

Date:

Astronomy

Mar. 30, 2013 Rise Set
Actual Time 7:05 AM CDT 7:37 PM CDT
Civil Twilight 6:39 AM CDT 8:03 PM CDT
Nautical Twilight 6:09 AM CDT 8:33 PM CDT
Astronomical Twilight 5:38 AM CDT 9:05 PM CDT
Moon 11:37 PM CDT 9:07 AM CDT
Length of Visible Light 13h 23m
Length of Day
12h 32m
Waning Gibbous, 86% of the Moon is Illuminated
Mar 30
Waning Gibbous
Apr 2
Last Quarter
Apr 10
New
Apr 18
First Quarter
Apr 25
Full

Hourly Weather History & Observations

Time (CDT) Temp. Dew Point Humidity Pressure Visibility Wind Dir Wind Speed Gust Speed Precip Events Conditions
12:15 AM 57.2 °F 51.8 °F 82% 30.11 in 10.0 mi SE 5.8 mph - N/A   Overcast
12:35 AM 57.2 °F 51.8 °F 82% 30.11 in 10.0 mi SE 5.8 mph - N/A   Overcast
12:55 AM 57.2 °F 51.8 °F 82% 30.10 in 10.0 mi SE 5.8 mph - N/A   Overcast
1:15 AM 57.2 °F 51.8 °F 82% 30.09 in 10.0 mi SSE 5.8 mph - N/A   Overcast
1:35 AM 57.2 °F 51.8 °F 82% 30.08 in 10.0 mi SSE 5.8 mph - N/A   Mostly Cloudy
1:55 AM 55.4 °F 51.8 °F 88% 30.08 in 10.0 mi SE 5.8 mph - N/A   Clear
2:15 AM 55.4 °F 51.8 °F 88% 30.07 in 10.0 mi SE 6.9 mph - N/A   Clear
2:35 AM 55.4 °F 51.8 °F 88% 30.07 in 10.0 mi SSE 3.5 mph - N/A   Clear
2:55 AM 55.4 °F 51.8 °F 88% 30.07 in 10.0 mi SE 3.5 mph - N/A   Partly Cloudy
3:15 AM 55.4 °F 51.8 °F 88% 30.07 in 10.0 mi SE 4.6 mph - N/A   Mostly Cloudy
3:35 AM 55.4 °F 51.8 °F 88% 30.06 in 10.0 mi SE 5.8 mph - N/A   Overcast
3:55 AM 55.4 °F 51.8 °F 88% 30.05 in 10.0 mi ESE 6.9 mph - N/A   Scattered Clouds
4:15 AM 55.4 °F 51.8 °F 88% 30.04 in 10.0 mi SE 6.9 mph - N/A   Clear
4:35 AM 55.4 °F 51.8 °F 88% 30.03 in 10.0 mi SE 6.9 mph - N/A   Clear
4:55 AM 53.6 °F 51.8 °F 94% 30.02 in 10.0 mi SE 8.1 mph - N/A   Clear
5:15 AM 55.4 °F 51.8 °F 88% 30.01 in 10.0 mi ESE 5.8 mph - N/A   Clear
5:35 AM 55.4 °F 51.8 °F 88% 30.01 in 10.0 mi ESE 6.9 mph - N/A   Scattered Clouds
5:55 AM 55.4 °F 51.8 °F 88% 30.00 in 10.0 mi ESE 8.1 mph - N/A   Scattered Clouds
6:15 AM 53.6 °F 50.0 °F 88% 30.01 in 10.0 mi SE 5.8 mph - N/A   Clear
6:35 AM 53.6 °F 50.0 °F 88% 30.01 in 10.0 mi ESE 5.8 mph - N/A   Clear
6:55 AM 53.6 °F 50.0 °F 88% 30.00 in 10.0 mi ESE 6.9 mph - N/A   Clear
7:15 AM 53.6 °F 50.0 °F 88% 30.00 in 10.0 mi ESE 6.9 mph - N/A   Scattered Clouds
7:35 AM 53.6 °F 50.0 °F 88% 30.01 in 10.0 mi Calm Calm - N/A   Mostly Cloudy
7:55 AM 55.4 °F 50.0 °F 82% 30.02 in 10.0 mi East 4.6 mph - N/A   Overcast
8:15 AM 55.4 °F 50.0 °F 82% 30.03 in 10.0 mi Calm Calm - N/A   Overcast
8:35 AM 53.6 °F 50.0 °F 88% 30.02 in 6.0 mi East 4.6 mph - 0.01 in   Overcast
8:55 AM 53.6 °F 51.8 °F 94% 30.03 in 8.0 mi SE 3.5 mph - 0.01 in   Mostly Cloudy
9:15 AM 53.6 °F 50.0 °F 88% 30.09 in 4.0 mi NNW 12.7 mph 23.0 mph 0.19 in   Overcast
9:35 AM 53.6 °F 50.0 °F 88% 30.08 in 10.0 mi North 5.8 mph - 0.24 in   Mostly Cloudy
9:55 AM 53.6 °F 50.0 °F 88% 30.05 in 7.0 mi East 4.6 mph - 0.31 in   Overcast
10:15 AM 53.6 °F 51.8 °F 94% 30.04 in 9.0 mi SSE 5.8 mph - 0.04 in   Overcast
10:35 AM 53.6 °F 51.8 °F 94% 30.03 in 8.0 mi South 8.1 mph - 0.07 in   Overcast
10:55 AM 55.4 °F 51.8 °F 88% 30.01 in 5.0 mi SSE 6.9 mph - 0.10 in   Mostly Cloudy
11:15 AM 55.4 °F 51.8 °F 88% 29.99 in 10.0 mi SE 6.9 mph - N/A   Overcast
11:35 AM 55.4 °F 51.8 °F 88% 29.98 in 10.0 mi SSE 11.5 mph - N/A   Scattered Clouds
11:55 AM 57.2 °F 51.8 °F 82% 29.98 in 10.0 mi SSE 11.5 mph - N/A   Scattered Clouds
12:15 PM 57.2 °F 51.8 °F 82% 29.98 in 10.0 mi South 11.5 mph - N/A   Mostly Cloudy
12:35 PM 59.0 °F 53.6 °F 82% 29.98 in 10.0 mi South 9.2 mph - N/A   Mostly Cloudy
12:55 PM 60.8 °F 53.6 °F 77% 29.98 in 10.0 mi SSW 6.9 mph - N/A   Partly Cloudy
1:15 PM 60.8 °F 51.8 °F 72% 29.97 in 10.0 mi South 8.1 mph - N/A   Clear
1:35 PM 62.6 °F 53.6 °F 72% 29.96 in 10.0 mi SW 10.4 mph - N/A   Clear
1:55 PM 64.4 °F 53.6 °F 68% 29.96 in 10.0 mi SSW 10.4 mph - N/A   Clear
2:15 PM 64.4 °F 53.6 °F 68% 29.95 in 10.0 mi SSW 6.9 mph - N/A   Clear
2:35 PM 66.2 °F 53.6 °F 64% 29.94 in 10.0 mi SW 12.7 mph - N/A   Clear
2:55 PM 66.2 °F 53.6 °F 64% 29.93 in 10.0 mi SW 13.8 mph 18.4 mph N/A   Clear
3:15 PM 66.2 °F 53.6 °F 64% 29.93 in 10.0 mi SW 15.0 mph 18.4 mph N/A   Clear
3:35 PM 66.2 °F 53.6 °F 64% 29.91 in 10.0 mi WSW 12.7 mph - N/A   Partly Cloudy
3:55 PM 68.0 °F 53.6 °F 60% 29.91 in 10.0 mi SSW 12.7 mph - N/A   Mostly Cloudy
4:15 PM 66.2 °F 53.6 °F 64% 29.90 in 10.0 mi SW 9.2 mph - N/A   Mostly Cloudy
4:35 PM 66.2 °F 53.6 °F 64% 29.90 in 10.0 mi SW 8.1 mph - N/A   Overcast
4:55 PM 66.2 °F 53.6 °F 64% 29.89 in 10.0 mi SW 9.2 mph - N/A   Overcast
5:15 PM 66.2 °F 53.6 °F 64% 29.89 in 10.0 mi SW 10.4 mph - N/A   Overcast
5:35 PM 66.2 °F 55.4 °F 68% 29.89 in 10.0 mi SW 11.5 mph - N/A   Overcast
5:55 PM 66.2 °F 53.6 °F 64% 29.89 in 10.0 mi SW 10.4 mph - N/A   Overcast
6:15 PM 66.2 °F 55.4 °F 68% 29.89 in 10.0 mi SSW 10.4 mph - N/A   Scattered Clouds
6:35 PM 64.4 °F 53.6 °F 68% 29.89 in 10.0 mi SW 10.4 mph - N/A   Mostly Cloudy
6:55 PM 64.4 °F 53.6 °F 68% 29.90 in 10.0 mi SW 9.2 mph - N/A   Mostly Cloudy
7:15 PM 64.4 °F 53.6 °F 68% 29.90 in 10.0 mi SW 5.8 mph - N/A   Overcast
7:35 PM 62.6 °F 53.6 °F 72% 29.89 in 10.0 mi South 5.8 mph - N/A   Mostly Cloudy
7:55 PM 62.6 °F 53.6 °F 72% 29.90 in 10.0 mi South 4.6 mph - N/A   Mostly Cloudy
8:15 PM 60.8 °F 53.6 °F 77% 29.90 in 10.0 mi South 5.8 mph - N/A   Overcast
8:35 PM 60.8 °F 53.6 °F 77% 29.90 in 10.0 mi South 5.8 mph - N/A   Mostly Cloudy
8:55 PM 60.8 °F 53.6 °F 77% 29.89 in 10.0 mi South 5.8 mph - N/A   Scattered Clouds
9:15 PM 60.8 °F 53.6 °F 77% 29.89 in 10.0 mi South 6.9 mph - N/A   Overcast
9:35 PM 62.6 °F 53.6 °F 72% 29.90 in 10.0 mi South 6.9 mph - N/A   Overcast
9:55 PM 62.6 °F 53.6 °F 72% 29.90 in 10.0 mi South 6.9 mph - N/A   Overcast
10:15 PM 60.8 °F 53.6 °F 77% 29.92 in 10.0 mi NNE 5.8 mph - N/A Thunderstorm Thunderstorm
10:35 PM 60.8 °F 53.6 °F 77% 29.92 in 9.0 mi ESE 5.8 mph - 0.03 in Thunderstorm Overcast
10:55 PM 59.0 °F 53.6 °F 82% 29.91 in 5.0 mi SE 4.6 mph - 0.08 in Thunderstorm Mostly Cloudy
11:15 PM 57.2 °F 53.6 °F 88% 29.93 in 10.0 mi Calm Calm - 0.01 in   Mostly Cloudy
11:35 PM 57.2 °F 53.6 °F 88% 29.93 in 10.0 mi Calm Calm - 0.01 in   Mostly Cloudy
11:55 PM 55.4 °F 53.6 °F 94% 29.92 in 10.0 mi SSE 4.6 mph - 0.01 in   Scattered Clouds